| time (UTC) | temp F | wind direction | speed knots | gust knots | rain 1hr in | rain 24hr in | rain mn in | humidity % | barometer mb |
| 20260504141236 | 63 | 214 | 0.9 | 7.0 | 0.00 | 0.02 | 0.00 | 88 | 999.6 |
| 20260504130734 | 64 | 235 | 0.0 | 2.6 | 0.00 | 0.02 | 0.02 | 86 | 999.4 |
| 20260504081722 | 65 | 0 | 0.0 | 1.7 | 0.00 | 0.02 | 0.02 | 88 | 998.4 |
| 20260504080724 | 65 | 148 | 0.9 | 2.6 | 0.00 | 0.02 | 0.02 | 88 | 998.3 |
| 20260504050714 | 67 | 88 | 0.9 | 3.5 | 0.00 | 0.02 | 0.02 | 86 | 998.1 |
| 20260504045712 | 66 | 355 | 0.0 | 2.6 | 0.00 | 0.02 | 0.02 | 88 | 998.1 |
| 20260504044710 | 66 | 55 | 0.0 | 2.6 | 0.00 | 0.02 | 0.02 | 88 | 998.1 |
| 20260504043724 | 66 | 32 | 0.0 | 2.6 | 0.00 | 0.02 | 0.02 | 89 | 998.2 |
| 20260504043712 | 66 | 38 | 0.0 | 2.6 | 0.00 | 0.02 | 0.02 | 89 | 998.1 |
| 20260504042212 | 66 | 86 | 0.0 | 2.6 | 0.00 | 0.02 | 0.02 | 89 | 998.2 |
| 20260504040720 | 65 | 61 | 0.9 | 4.3 | 0.00 | 0.02 | 0.02 | 89 | 998.4 |
| 20260504035708 | 65 | 36 | 0.0 | 4.3 | 0.00 | 0.02 | 0.02 | 90 | 998.5 |
| 20260504035207 | 65 | 355 | 0.9 | 2.6 | 0.00 | 0.02 | 0.02 | 90 | 998.5 |
| 20260504033706 | 66 | 318 | 0.0 | 2.6 | 0.00 | 0.02 | 0.02 | 91 | 998.7 |
| 20260504032706 | 66 | 290 | 0.0 | 1.7 | 0.00 | 0.02 | 0.02 | 90 | 999.0 |
| 20260504032209 | 66 | 349 | 0.0 | 1.7 | 0.01 | 0.02 | 0.02 | 90 | 999.2 |
| 20260504030707 | 66 | 79 | 0.0 | 2.6 | 0.01 | 0.02 | 0.02 | 90 | 999.3 |
| 20260504025721 | 66 | 337 | 0.0 | 3.5 | 0.02 | 0.02 | 0.02 | 90 | 999.6 |
| 20260504024703 | 66 | 340 | 0.0 | 1.7 | 0.02 | 0.02 | 0.02 | 90 | 999.8 |
| 20260504024202 | 66 | 321 | 0.0 | 1.7 | 0.02 | 0.02 | 0.02 | 89 | 1000.0 |
| 20260504022700 | 66 | 321 | 0.0 | 0.0 | 0.02 | 0.02 | 0.02 | 88 | 1000.2 |
| 20260504021702 | 66 | 321 | 0.0 | 0.0 | 0.02 | 0.02 | 0.02 | 86 | 1000.4 |
| 20260504020704 | 67 | 321 | 0.9 | 2.6 | 0.02 | 0.02 | 0.02 | 84 | 1000.6 |
| 20260504020202 | 67 | 351 | 0.9 | 4.3 | 0.01 | 0.01 | 0.01 | 83 | 1000.8 |
| 20260504014700 | 68 | 311 | 0.9 | 6.1 | 0.00 | 0.00 | 0.00 | 83 | 1000.9 |
| 20260504013702 | 68 | 281 | 0.0 | 2.6 | 0.00 | 0.00 | 0.00 | 84 | 1000.9 |
| 20260504012701 | 68 | 302 | 0.9 | 1.7 | 0.00 | 0.00 | 0.00 | 84 | 1001.1 |
| 20260504011656 | 68 | 299 | 0.0 | 3.5 | 0.00 | 0.00 | 0.00 | 83 | 1001.2 |
| 20260504010708 | 69 | 355 | 0.0 | 1.7 | 0.00 | 0.00 | 0.00 | 83 | 1001.2 |
| 20260504005655 | 68 | 20 | 0.9 | 2.6 | 0.00 | 0.00 | 0.00 | 82 | 1001.3 |
| 20260504004654 | 68 | 295 | 0.0 | 2.6 | 0.00 | 0.00 | 0.00 | 83 | 1001.1 |
| 20260504003656 | 68 | 348 | 0.0 | 2.6 | 0.00 | 0.00 | 0.00 | 83 | 1001.0 |
| 20260504002655 | 67 | 335 | 0.0 | 1.7 | 0.00 | 0.00 | 0.00 | 86 | 1001.0 |
| 20260504001654 | 67 | 196 | 0.0 | 0.9 | 0.00 | 0.00 | 0.00 | 86 | 1001.0 |
| 20260504000706 | 66 | 196 | 0.0 | 0.9 | 0.00 | 0.00 | 0.00 | 88 | 1001.2 |
| 20260504000654 | 66 | 196 | 0.9 | 1.7 | 0.00 | 0.00 | 0.00 | 87 | 1001.1 |
| 20260503235152 | 66 | 196 | 0.9 | 3.5 | 0.00 | 0.00 | 0.00 | 88 | 1001.2 |
| 20260503233650 | 65 | 209 | 0.0 | 2.6 | 0.00 | 0.00 | 0.00 | 88 | 1001.3 |
| 20260503232648 | 65 | 340 | 0.0 | 1.7 | 0.00 | 0.00 | 0.00 | 89 | 1001.3 |
| 20260503231648 | 65 | 12 | 0.0 | 1.7 | 0.00 | 0.00 | 0.00 | 90 | 1001.3 |
| 20260503230648 | 64 | 84 | 0.0 | 1.7 | 0.00 | 0.00 | 0.00 | 91 | 1001.3 |
| 20260503225649 | 64 | 36 | 0.0 | 0.9 | 0.00 | 0.00 | 0.00 | 91 | 1001.2 |
| 20260503224650 | 63 | 0 | 0.0 | 0.9 | 0.00 | 0.00 | 0.00 | 92 | 1001.0 |
| 20260503223647 | 63 | 355 | 0.0 | 0.9 | 0.00 | 0.00 | 0.00 | 93 | 1000.8 |
| 20260503222649 | 62 | 342 | 0.0 | 2.6 | 0.00 | 0.00 | 0.00 | 94 | 1000.6 |
| 20260503222152 | 62 | 61 | 0.0 | 1.7 | 0.00 | 0.00 | 0.00 | 95 | 1000.5 |
| 20260503221151 | 62 | 61 | 0.0 | 0.0 | 0.00 | 0.00 | 0.00 | 95 | 1000.5 |
| 20260503215648 | 62 | 61 | 0.0 | 0.9 | 0.00 | 0.00 | 0.00 | 95 | 1000.5 |
| 20260503214648 | 61 | 310 | 0.0 | 0.9 | 0.00 | 0.00 | 0.00 | 95 | 1000.4 |
| 20260503213647 | 61 | 329 | 0.0 | 1.7 | 0.00 | 0.00 | 0.00 | 95 | 1000.3 |
| 20260503212648 | 60 | 35 | 0.0 | 0.9 | 0.00 | 0.00 | 0.00 | 95 | 1000.3 |
| 20260503211648 | 60 | 35 | 0.0 | 0.0 | 0.00 | 0.00 | 0.00 | 95 | 1000.3 |
| 20260503210650 | 60 | 35 | 0.0 | 0.0 | 0.00 | 0.00 | 0.00 | 94 | 1000.1 |
| 20260503205650 | 60 | 35 | 0.0 | 0.0 | 0.00 | 0.00 | 0.00 | 94 | 1000.1 |
| 20260503204649 | 60 | 35 | 0.0 | 0.0 | 0.00 | 0.00 | 0.00 | 94 | 1000.0 |
| 20260503203649 | 60 | 35 | 0.0 | 0.0 | 0.00 | 0.00 | 0.00 | 94 | 999.9 |
| 20260503202650 | 60 | 35 | 0.0 | 1.7 | 0.00 | 0.00 | 0.00 | 94 | 999.8 |
| 20260503201647 | 60 | 35 | 0.0 | 0.0 | 0.00 | 0.00 | 0.00 | 94 | 999.6 |
| 20260503200646 | 60 | 35 | 0.0 | 0.0 | 0.00 | 0.00 | 0.00 | 94 | 999.6 |
| 20260503195647 | 60 | 35 | 0.0 | 0.0 | 0.00 | 0.00 | 0.00 | 93 | 999.5 |
| 20260503194641 | 59 | 35 | 0.0 | 0.0 | 0.00 | 0.00 | 0.00 | 93 | 999.4 |
| 20260503193639 | 60 | 35 | 0.0 | 0.0 | 0.00 | 0.00 | 0.00 | 93 | 999.3 |
| 20260503192641 | 60 | 35 | 0.0 | 0.0 | 0.00 | 0.00 | 0.00 | 93 | 999.3 |
| 20260503191640 | 60 | 35 | 0.0 | 0.0 | 0.00 | 0.00 | 0.00 | 93 | 999.3 |
| 20260503190640 | 60 | 35 | 0.0 | 0.9 | 0.00 | 0.00 | 0.00 | 93 | 999.3 |
| 20260503185639 | 60 | 35 | 0.0 | 0.9 | 0.00 | 0.00 | 0.00 | 93 | 999.3 |
| 20260503184635 | 60 | 35 | 0.0 | 0.0 | 0.00 | 0.00 | 0.00 | 92 | 999.3 |
| 20260503183636 | 60 | 35 | 0.0 | 0.9 | 0.00 | 0.00 | 0.00 | 92 | 999.3 |
| 20260503182636 | 60 | 35 | 0.0 | 0.9 | 0.00 | 0.00 | 0.00 | 92 | 999.3 |
| 20260503181631 | 60 | 35 | 0.0 | 0.9 | 0.00 | 0.00 | 0.00 | 92 | 999.1 |
| 20260503180629 | 60 | 35 | 0.0 | 0.9 | 0.00 | 0.00 | 0.00 | 92 | 999.2 |
| 20260503175626 | 60 | 35 | 0.0 | 0.9 | 0.00 | 0.00 | 0.00 | 92 | 999.3 |
| 20260503174626 | 60 | 35 | 0.0 | 1.7 | 0.00 | 0.00 | 0.00 | 91 | 999.3 |
| 20260503173628 | 60 | 52 | 0.0 | 0.9 | 0.00 | 0.00 | 0.00 | 91 | 999.3 |
| 20260503172628 | 60 | 52 | 0.0 | 1.7 | 0.00 | 0.00 | 0.00 | 91 | 999.4 |
| 20260503171626 | 61 | 22 | 0.0 | 0.9 | 0.00 | 0.00 | 0.00 | 91 | 999.6 |
| 20260503170629 | 61 | 22 | 0.0 | 0.0 | 0.00 | 0.00 | 0.00 | 90 | 999.6 |
| 20260503150621 | 63 | 151 | 0.0 | 5.2 | 0.00 | 0.00 | 0.00 | 90 | 1000.4 |